Year,Month,Day,Hour,Minute,Value (Times are PST for temperature in C)
2012,08,16,00,00,16.00
2012,08,16,00,01,16.10
2012,08,16,00,02,16.10
2012,08,16,00,03,16.20
2012,08,16,00,04,16.20
2012,08,16,00,05,16.20
2012,08,16,00,06,16.30
2012,08,16,00,07,16.30
2012,08,16,00,08,16.30
2012,08,16,00,09,16.40
2012,08,16,00,10,16.40
2012,08,16,00,11,16.40
2012,08,16,00,12,16.50
2012,08,16,00,13,16.50
2012,08,16,00,14,16.50
2012,08,16,00,15,16.60
2012,08,16,00,16,16.60
2012,08,16,00,17,16.60
2012,08,16,00,18,16.60
2012,08,16,00,19,16.60
2012,08,16,00,20,16.60
2012,08,16,00,21,16.60
2012,08,16,00,22,16.60
2012,08,16,00,23,16.60
2012,08,16,00,24,16.60
2012,08,16,00,25,16.60
2012,08,16,00,26,16.70
2012,08,16,00,27,16.70
2012,08,16,00,28,16.70
2012,08,16,00,29,16.70
2012,08,16,00,30,16.80
2012,08,16,00,31,16.80
2012,08,16,00,32,16.80
2012,08,16,00,33,16.80
2012,08,16,00,34,16.80
2012,08,16,00,35,16.80
2012,08,16,00,36,16.80
2012,08,16,00,37,16.80
2012,08,16,00,38,16.80
2012,08,16,00,39,16.80
2012,08,16,00,40,16.80
2012,08,16,00,41,16.70
2012,08,16,00,42,16.70
2012,08,16,00,43,16.70
2012,08,16,00,44,16.70
2012,08,16,00,45,16.60
2012,08,16,00,46,16.60
2012,08,16,00,47,16.60
2012,08,16,00,48,16.60
2012,08,16,00,49,16.50
2012,08,16,00,50,16.50
2012,08,16,00,51,16.40
2012,08,16,00,52,16.40
2012,08,16,00,53,16.40
2012,08,16,00,54,16.30
2012,08,16,00,55,16.30
2012,08,16,00,56,16.30
2012,08,16,00,57,16.30
2012,08,16,00,58,16.30
2012,08,16,00,59,16.30
2012,08,16,01,00,16.20
2012,08,16,01,01,16.20
2012,08,16,01,02,16.20
2012,08,16,01,03,16.10
2012,08,16,01,04,16.10
2012,08,16,01,05,16.10
2012,08,16,01,06,16.10
2012,08,16,01,07,16.10
2012,08,16,01,08,16.10
2012,08,16,01,09,16.10
2012,08,16,01,10,16.10
2012,08,16,01,11,16.10
2012,08,16,01,12,16.10
2012,08,16,01,13,16.10
2012,08,16,01,14,16.10
2012,08,16,01,15,16.10
2012,08,16,01,16,16.10
2012,08,16,01,17,16.10
2012,08,16,01,18,16.10
2012,08,16,01,19,16.10
2012,08,16,01,20,16.20
2012,08,16,01,21,16.20
2012,08,16,01,22,16.20
2012,08,16,01,23,16.20
2012,08,16,01,24,16.30
2012,08,16,01,25,16.30
2012,08,16,01,26,16.30
2012,08,16,01,27,16.30
2012,08,16,01,28,16.20
2012,08,16,01,29,16.20
2012,08,16,01,30,16.20
2012,08,16,01,31,16.20
2012,08,16,01,32,16.20
2012,08,16,01,33,16.20
2012,08,16,01,34,16.20
2012,08,16,01,35,16.20
2012,08,16,01,36,16.20
2012,08,16,01,37,16.10
2012,08,16,01,38,16.10
2012,08,16,01,39,16.10
2012,08,16,01,40,16.10
2012,08,16,01,41,16.10
2012,08,16,01,42,16.10
2012,08,16,01,43,16.10
2012,08,16,01,44,16.20
2012,08,16,01,45,16.20
2012,08,16,01,46,16.20
2012,08,16,01,47,16.20
2012,08,16,01,48,16.20
2012,08,16,01,49,16.30
2012,08,16,01,50,16.40
2012,08,16,01,51,16.50
2012,08,16,01,52,16.60
2012,08,16,01,53,16.70
2012,08,16,01,54,16.80
2012,08,16,01,55,16.90
2012,08,16,01,56,17.00
2012,08,16,01,57,17.10
2012,08,16,01,58,17.30
2012,08,16,01,59,17.40
2012,08,16,02,00,17.50
2012,08,16,02,01,17.60
2012,08,16,02,02,17.60
2012,08,16,02,03,17.70
2012,08,16,02,04,17.70
2012,08,16,02,05,17.70
2012,08,16,02,06,17.80
2012,08,16,02,07,17.80
2012,08,16,02,08,17.80
2012,08,16,02,09,17.70
2012,08,16,02,10,17.80
2012,08,16,02,11,17.80
2012,08,16,02,12,17.80
2012,08,16,02,13,17.80
2012,08,16,02,14,17.80
2012,08,16,02,15,17.80
2012,08,16,02,16,17.80
2012,08,16,02,17,17.80
2012,08,16,02,18,17.80
2012,08,16,02,19,17.80
2012,08,16,02,20,17.80
2012,08,16,02,21,17.80
2012,08,16,02,22,17.80
2012,08,16,02,23,17.80
2012,08,16,02,24,17.80
2012,08,16,02,25,17.80
2012,08,16,02,26,17.80
2012,08,16,02,27,17.80
2012,08,16,02,28,17.80
2012,08,16,02,29,17.80
2012,08,16,02,30,17.80
2012,08,16,02,31,17.80
2012,08,16,02,32,17.80
2012,08,16,02,33,17.90
2012,08,16,02,34,17.90
2012,08,16,02,35,17.90
2012,08,16,02,36,17.90
2012,08,16,02,37,18.00
2012,08,16,02,38,18.10
2012,08,16,02,39,18.10
2012,08,16,02,40,18.20
2012,08,16,02,41,18.20
2012,08,16,02,42,18.20
2012,08,16,02,43,18.20
2012,08,16,02,44,18.30
2012,08,16,02,45,18.30
2012,08,16,02,46,18.20
2012,08,16,02,47,18.20
2012,08,16,02,48,18.20
2012,08,16,02,49,18.20
2012,08,16,02,50,18.20
2012,08,16,02,51,18.10
2012,08,16,02,52,18.10
2012,08,16,02,53,18.10
2012,08,16,02,54,18.00
2012,08,16,02,55,17.90
2012,08,16,02,56,17.80
2012,08,16,02,57,17.70
2012,08,16,02,58,17.60
2012,08,16,02,59,17.60
2012,08,16,03,00,17.50
2012,08,16,03,01,17.40
2012,08,16,03,02,17.40
2012,08,16,03,03,17.40
2012,08,16,03,04,17.30
2012,08,16,03,05,17.30
2012,08,16,03,06,17.20
2012,08,16,03,07,17.20
2012,08,16,03,08,17.20
2012,08,16,03,09,17.20
2012,08,16,03,10,17.20
2012,08,16,03,11,17.20
2012,08,16,03,12,17.20
2012,08,16,03,13,17.20
2012,08,16,03,14,17.20
2012,08,16,03,15,17.20
2012,08,16,03,16,17.20
2012,08,16,03,17,17.20
2012,08,16,03,18,17.20
2012,08,16,03,19,17.30
2012,08,16,03,20,17.30
2012,08,16,03,21,17.30
2012,08,16,03,22,17.30
2012,08,16,03,23,17.30
2012,08,16,03,24,17.40
2012,08,16,03,25,17.40
2012,08,16,03,26,17.40
2012,08,16,03,27,17.50
2012,08,16,03,28,17.50
2012,08,16,03,29,17.50
2012,08,16,03,30,17.60
2012,08,16,03,31,17.60
2012,08,16,03,32,17.70
2012,08,16,03,33,17.70
2012,08,16,03,34,17.70
2012,08,16,03,35,17.70
2012,08,16,03,36,17.80
2012,08,16,03,37,17.80
2012,08,16,03,38,17.80
2012,08,16,03,39,17.80
2012,08,16,03,40,17.80
2012,08,16,03,41,17.80
2012,08,16,03,42,17.80
2012,08,16,03,43,17.80
2012,08,16,03,44,17.80
2012,08,16,03,45,17.80
2012,08,16,03,46,17.80
2012,08,16,03,47,17.80
2012,08,16,03,48,17.80
2012,08,16,03,49,17.80
2012,08,16,03,50,17.80
2012,08,16,03,51,17.80
2012,08,16,03,52,17.80
2012,08,16,03,53,17.80
2012,08,16,03,54,17.70
2012,08,16,03,55,17.70
2012,08,16,03,56,17.70
2012,08,16,03,57,17.70
2012,08,16,03,58,17.70
2012,08,16,03,59,17.70
2012,08,16,04,00,17.70
2012,08,16,04,01,17.60
2012,08,16,04,02,17.60
2012,08,16,04,03,17.60
2012,08,16,04,04,17.60
2012,08,16,04,05,17.60
2012,08,16,04,06,17.60
2012,08,16,04,07,17.60
2012,08,16,04,08,17.60
2012,08,16,04,09,17.70
2012,08,16,04,10,17.70
2012,08,16,04,11,17.70
2012,08,16,04,12,17.70
2012,08,16,04,13,17.70
2012,08,16,04,14,17.70
2012,08,16,04,15,17.70
2012,08,16,04,16,17.60
2012,08,16,04,17,17.60
2012,08,16,04,18,17.50
2012,08,16,04,19,17.50
2012,08,16,04,20,17.50
2012,08,16,04,21,17.50
2012,08,16,04,22,17.50
2012,08,16,04,23,17.50
2012,08,16,04,24,17.60
2012,08,16,04,25,17.60
2012,08,16,04,26,17.60
2012,08,16,04,27,17.70
2012,08,16,04,28,17.70
2012,08,16,04,29,17.80
2012,08,16,04,30,17.80
2012,08,16,04,31,17.90
2012,08,16,04,32,17.90
2012,08,16,04,33,18.00
2012,08,16,04,34,18.00
2012,08,16,04,35,18.10
2012,08,16,04,36,18.10
2012,08,16,04,37,18.20
2012,08,16,04,38,18.20
2012,08,16,04,39,18.20
2012,08,16,04,40,18.20
2012,08,16,04,41,18.20
2012,08,16,04,42,18.30
2012,08,16,04,43,18.30
2012,08,16,04,44,18.30
2012,08,16,04,45,18.30
2012,08,16,04,46,18.30
2012,08,16,04,47,18.30
2012,08,16,04,48,18.30
2012,08,16,04,49,18.30
2012,08,16,04,50,18.30
2012,08,16,04,51,18.30
2012,08,16,04,52,18.30
2012,08,16,04,53,18.20
2012,08,16,04,54,18.20
2012,08,16,04,55,18.20
2012,08,16,04,56,18.20
2012,08,16,04,57,18.10
2012,08,16,04,58,18.10
2012,08,16,04,59,18.10
2012,08,16,05,00,18.10
2012,08,16,05,01,18.10
2012,08,16,05,02,18.10
2012,08,16,05,03,18.00
2012,08,16,05,04,18.00
2012,08,16,05,05,17.90
2012,08,16,05,06,17.90
2012,08,16,05,07,17.80
2012,08,16,05,08,17.80
2012,08,16,05,09,17.80
2012,08,16,05,10,17.70
2012,08,16,05,11,17.70
2012,08,16,05,12,17.60
2012,08,16,05,13,17.60
2012,08,16,05,14,17.50
2012,08,16,05,15,17.40
2012,08,16,05,16,17.40
2012,08,16,05,17,17.30
2012,08,16,05,18,17.30
2012,08,16,05,19,17.20
2012,08,16,05,20,17.10
2012,08,16,05,21,17.10
2012,08,16,05,22,17.10
2012,08,16,05,23,17.00
2012,08,16,05,24,17.00
2012,08,16,05,25,16.90
2012,08,16,05,26,16.90
2012,08,16,05,27,16.80
2012,08,16,05,28,16.80
2012,08,16,05,29,16.70
2012,08,16,05,30,16.70
2012,08,16,05,31,16.70
2012,08,16,05,32,16.60
2012,08,16,05,33,16.60
2012,08,16,05,34,16.50
2012,08,16,05,35,16.50
2012,08,16,05,36,16.40
2012,08,16,05,37,16.30
2012,08,16,05,38,16.30
2012,08,16,05,39,16.20
2012,08,16,05,40,16.10
2012,08,16,05,41,16.00
2012,08,16,05,42,15.90
2012,08,16,05,43,15.90
2012,08,16,05,44,15.80
2012,08,16,05,45,15.80
2012,08,16,05,46,15.80
2012,08,16,05,47,15.80
2012,08,16,05,48,15.80
2012,08,16,05,49,15.70
2012,08,16,05,50,15.70
2012,08,16,05,51,15.70
2012,08,16,05,52,15.70
2012,08,16,05,53,15.60
2012,08,16,05,54,15.60
2012,08,16,05,55,15.60
2012,08,16,05,56,15.50
2012,08,16,05,57,15.50
2012,08,16,05,58,15.40
2012,08,16,05,59,15.40
2012,08,16,06,00,15.30
2012,08,16,06,01,15.30
2012,08,16,06,02,15.30
2012,08,16,06,03,15.30
2012,08,16,06,04,15.30
2012,08,16,06,05,15.30
2012,08,16,06,06,15.30
2012,08,16,06,07,15.30
2012,08,16,06,08,15.30
2012,08,16,06,09,15.30
2012,08,16,06,10,15.30
2012,08,16,06,11,15.30
2012,08,16,06,12,15.30
2012,08,16,06,13,15.20
2012,08,16,06,14,15.20
2012,08,16,06,15,15.20
2012,08,16,06,16,15.10
2012,08,16,06,17,15.10
2012,08,16,06,18,15.10
2012,08,16,06,19,15.00
2012,08,16,06,20,15.00
2012,08,16,06,21,14.90
2012,08,16,06,22,14.80
2012,08,16,06,23,14.80
2012,08,16,06,24,14.70
2012,08,16,06,25,14.60
2012,08,16,06,26,14.60
2012,08,16,06,27,14.60
2012,08,16,06,28,14.70
2012,08,16,06,29,14.70
2012,08,16,06,30,14.80
2012,08,16,06,31,14.90
2012,08,16,06,32,14.90
2012,08,16,06,33,15.00
2012,08,16,06,34,15.00
2012,08,16,06,35,15.10
2012,08,16,06,36,15.00
2012,08,16,06,37,15.00
2012,08,16,06,38,15.00
2012,08,16,06,39,15.00
2012,08,16,06,40,14.90
2012,08,16,06,41,14.90
2012,08,16,06,42,14.90
2012,08,16,06,43,14.90
2012,08,16,06,44,14.90
2012,08,16,06,45,14.90
2012,08,16,06,46,14.90
2012,08,16,06,47,14.90
2012,08,16,06,48,14.90
2012,08,16,06,49,14.90
2012,08,16,06,50,14.90
2012,08,16,06,51,14.90
2012,08,16,06,52,14.90
2012,08,16,06,53,14.90
2012,08,16,06,54,14.90
2012,08,16,06,55,14.90
2012,08,16,06,56,14.90
2012,08,16,06,57,14.90
2012,08,16,06,58,14.80
2012,08,16,06,59,14.80
2012,08,16,07,00,14.80
2012,08,16,07,01,14.80
2012,08,16,07,02,14.80
2012,08,16,07,03,14.80
2012,08,16,07,04,14.90
2012,08,16,07,05,14.90
2012,08,16,07,06,14.90
2012,08,16,07,07,14.90
2012,08,16,07,08,14.90
2012,08,16,07,09,15.00
2012,08,16,07,10,15.00
2012,08,16,07,11,15.10
2012,08,16,07,12,15.10
2012,08,16,07,13,15.20
2012,08,16,07,14,15.20
2012,08,16,07,15,15.20
2012,08,16,07,16,15.30
2012,08,16,07,17,15.30
2012,08,16,07,18,15.40
2012,08,16,07,19,15.50
2012,08,16,07,20,15.50
2012,08,16,07,21,15.60
2012,08,16,07,22,15.70
2012,08,16,07,23,15.70
2012,08,16,07,24,15.70
2012,08,16,07,25,15.70
2012,08,16,07,26,15.60
2012,08,16,07,27,15.60
2012,08,16,07,28,15.70
2012,08,16,07,29,15.70
2012,08,16,07,30,15.80
2012,08,16,07,31,16.00
2012,08,16,07,32,16.20
2012,08,16,07,33,16.30
2012,08,16,07,34,16.40
2012,08,16,07,35,16.50
2012,08,16,07,36,16.60
2012,08,16,07,37,16.60
2012,08,16,07,38,16.60
2012,08,16,07,39,16.60
2012,08,16,07,40,16.70
2012,08,16,07,41,16.70
2012,08,16,07,42,16.70
2012,08,16,07,43,16.80
2012,08,16,07,44,16.80
2012,08,16,07,45,16.90
2012,08,16,07,46,17.00
2012,08,16,07,47,17.00
2012,08,16,07,48,17.10
2012,08,16,07,49,17.20
2012,08,16,07,50,17.30
2012,08,16,07,51,17.40
2012,08,16,07,52,17.40
2012,08,16,07,53,17.50
2012,08,16,07,54,17.50
2012,08,16,07,55,17.60
2012,08,16,07,56,17.70
2012,08,16,07,57,17.80
2012,08,16,07,58,17.80
2012,08,16,07,59,18.00
2012,08,16,08,00,18.10
2012,08,16,08,01,18.10
2012,08,16,08,02,18.20
2012,08,16,08,03,18.30
2012,08,16,08,04,18.40
2012,08,16,08,05,18.60
2012,08,16,08,06,18.70
2012,08,16,08,07,18.80
2012,08,16,08,08,18.90
2012,08,16,08,09,18.90
2012,08,16,08,10,19.00
2012,08,16,08,11,19.10
2012,08,16,08,12,19.10
2012,08,16,08,13,19.10
2012,08,16,08,14,19.10
2012,08,16,08,15,19.10
2012,08,16,08,16,19.00
2012,08,16,08,17,18.90
2012,08,16,08,18,18.90
2012,08,16,08,19,18.80
2012,08,16,08,20,18.80
2012,08,16,08,21,18.90
2012,08,16,08,22,18.90
2012,08,16,08,23,18.90
2012,08,16,08,24,18.90
2012,08,16,08,25,18.90
2012,08,16,08,26,18.90
2012,08,16,08,27,18.90
2012,08,16,08,28,18.80
2012,08,16,08,29,18.80
2012,08,16,08,30,18.70
2012,08,16,08,31,18.70
2012,08,16,08,32,18.70
2012,08,16,08,33,18.80
2012,08,16,08,34,18.80
2012,08,16,08,35,18.80
2012,08,16,08,36,18.80
2012,08,16,08,37,18.90
2012,08,16,08,38,18.90
2012,08,16,08,39,18.90
2012,08,16,08,40,19.00
2012,08,16,08,41,19.10
2012,08,16,08,42,19.10
2012,08,16,08,43,19.20
2012,08,16,08,44,19.30
2012,08,16,08,45,19.40
2012,08,16,08,46,19.50
2012,08,16,08,47,19.60
2012,08,16,08,48,19.70
2012,08,16,08,49,19.80
2012,08,16,08,50,19.90
2012,08,16,08,51,20.00
2012,08,16,08,52,20.10
2012,08,16,08,53,20.20
2012,08,16,08,54,20.20
2012,08,16,08,55,20.30
2012,08,16,08,56,20.30
2012,08,16,08,57,20.40
2012,08,16,08,58,20.50
2012,08,16,08,59,20.60
2012,08,16,09,00,20.70
2012,08,16,09,01,20.80
2012,08,16,09,02,20.90
2012,08,16,09,03,21.00
2012,08,16,09,04,21.10
2012,08,16,09,05,21.20
2012,08,16,09,06,21.30
2012,08,16,09,07,21.40
2012,08,16,09,08,21.50
2012,08,16,09,09,21.60
2012,08,16,09,10,21.70
2012,08,16,09,11,21.80
2012,08,16,09,12,21.80
2012,08,16,09,13,21.90
2012,08,16,09,14,21.90
2012,08,16,09,15,22.00
2012,08,16,09,16,22.00
2012,08,16,09,17,22.10
2012,08,16,09,18,22.10
2012,08,16,09,19,22.20
2012,08,16,09,20,22.20
2012,08,16,09,21,22.30
2012,08,16,09,22,22.40
2012,08,16,09,23,22.40
2012,08,16,09,24,22.50
2012,08,16,09,25,22.50
2012,08,16,09,26,22.60
2012,08,16,09,27,22.70
2012,08,16,09,28,22.70
2012,08,16,09,29,22.80
2012,08,16,09,30,22.90
2012,08,16,09,31,23.00
2012,08,16,09,32,23.00
2012,08,16,09,33,23.10
2012,08,16,09,34,23.20
2012,08,16,09,35,23.30
2012,08,16,09,36,23.40
2012,08,16,09,37,23.40
2012,08,16,09,38,23.50
2012,08,16,09,39,23.60
2012,08,16,09,40,23.60
2012,08,16,09,41,23.60
2012,08,16,09,42,23.60
2012,08,16,09,43,23.50
2012,08,16,09,44,23.50
2012,08,16,09,45,23.40
2012,08,16,09,46,23.40
2012,08,16,09,47,23.40
2012,08,16,09,48,23.40
2012,08,16,09,49,23.50
2012,08,16,09,50,23.50
2012,08,16,09,51,23.60
2012,08,16,09,52,23.60
2012,08,16,09,53,23.60
2012,08,16,09,54,23.60
2012,08,16,09,55,23.70
2012,08,16,09,56,23.70
2012,08,16,09,57,23.80
2012,08,16,09,58,23.80
2012,08,16,09,59,23.90
2012,08,16,10,00,24.00
2012,08,16,10,01,24.00
2012,08,16,10,02,24.10
2012,08,16,10,03,24.20
2012,08,16,10,04,24.20
2012,08,16,10,05,24.30
2012,08,16,10,06,24.30
2012,08,16,10,07,24.40
2012,08,16,10,08,24.40
2012,08,16,10,09,24.40
2012,08,16,10,10,24.40
2012,08,16,10,11,24.50
2012,08,16,10,12,24.60
2012,08,16,10,13,24.70
2012,08,16,10,14,24.70
2012,08,16,10,15,24.80
2012,08,16,10,16,24.90
2012,08,16,10,17,24.90
2012,08,16,10,18,25.00
2012,08,16,10,19,25.10
2012,08,16,10,20,25.20
2012,08,16,10,21,25.20
2012,08,16,10,22,25.30
2012,08,16,10,23,25.30
2012,08,16,10,24,25.40
2012,08,16,10,25,25.40
2012,08,16,10,26,25.40
2012,08,16,10,27,25.50
2012,08,16,10,28,25.60
2012,08,16,10,29,25.60
2012,08,16,10,30,25.60
2012,08,16,10,31,25.70
2012,08,16,10,32,25.70
2012,08,16,10,33,25.80
2012,08,16,10,34,25.80
2012,08,16,10,35,25.80
2012,08,16,10,36,25.80
2012,08,16,10,37,25.70
2012,08,16,10,38,25.70
2012,08,16,10,39,25.70
2012,08,16,10,40,25.70
2012,08,16,10,41,25.70
2012,08,16,10,42,25.70
2012,08,16,10,43,25.80
2012,08,16,10,44,25.80
2012,08,16,10,45,25.80
2012,08,16,10,46,25.90
2012,08,16,10,47,25.90
2012,08,16,10,48,26.00
2012,08,16,10,49,26.00
2012,08,16,10,50,26.10
2012,08,16,10,51,26.20
2012,08,16,10,52,26.30
2012,08,16,10,53,26.30
2012,08,16,10,54,26.40
2012,08,16,10,55,26.40
2012,08,16,10,56,26.50
2012,08,16,10,57,26.50
2012,08,16,10,58,26.60
2012,08,16,10,59,26.60
2012,08,16,11,00,26.60
2012,08,16,11,01,26.60
2012,08,16,11,02,26.60
2012,08,16,11,03,26.60
2012,08,16,11,04,26.60
2012,08,16,11,05,26.60
2012,08,16,11,06,26.60
2012,08,16,11,07,26.60
2012,08,16,11,08,26.60
2012,08,16,11,09,26.60
2012,08,16,11,10,26.60
2012,08,16,11,11,26.50
2012,08,16,11,12,26.50
2012,08,16,11,13,26.50
2012,08,16,11,14,26.40
2012,08,16,11,15,26.40
2012,08,16,11,16,26.40
2012,08,16,11,17,26.30
2012,08,16,11,18,26.30
2012,08,16,11,19,26.30
2012,08,16,11,20,26.30
2012,08,16,11,21,26.30
2012,08,16,11,22,26.40
2012,08,16,11,23,26.60
2012,08,16,11,24,26.80
2012,08,16,11,25,27.00
2012,08,16,11,26,27.20
2012,08,16,11,27,27.30
2012,08,16,11,28,27.50
2012,08,16,11,29,27.60
2012,08,16,11,30,27.70
2012,08,16,11,31,27.70
2012,08,16,11,32,27.80
2012,08,16,11,33,27.80
2012,08,16,11,34,28.00
2012,08,16,11,35,28.00
2012,08,16,11,36,28.10
2012,08,16,11,37,28.10
2012,08,16,11,38,28.10
2012,08,16,11,39,28.00
2012,08,16,11,40,27.90
2012,08,16,11,41,27.90
2012,08,16,11,42,27.90
2012,08,16,11,43,27.80
2012,08,16,11,44,27.80
2012,08,16,11,45,27.80
2012,08,16,11,46,27.80
2012,08,16,11,47,27.80
2012,08,16,11,48,27.70
2012,08,16,11,49,27.70
2012,08,16,11,50,27.70
2012,08,16,11,51,27.80
2012,08,16,11,52,27.80
2012,08,16,11,53,27.80
2012,08,16,11,54,27.80
2012,08,16,11,55,27.80
2012,08,16,11,56,27.70
2012,08,16,11,57,27.60
2012,08,16,11,58,27.50
2012,08,16,11,59,27.30
2012,08,16,12,00,27.20
2012,08,16,12,01,27.20
2012,08,16,12,02,27.20
2012,08,16,12,03,27.20
2012,08,16,12,04,27.20
2012,08,16,12,05,27.30
2012,08,16,12,06,27.30
2012,08,16,12,07,27.40
2012,08,16,12,08,27.40
2012,08,16,12,09,27.40
2012,08,16,12,10,27.40
2012,08,16,12,11,27.40
2012,08,16,12,12,27.40
2012,08,16,12,13,27.40
2012,08,16,12,14,27.40
2012,08,16,12,15,27.50
2012,08,16,12,16,27.60
2012,08,16,12,17,27.50
2012,08,16,12,18,27.50
2012,08,16,12,19,27.50
2012,08,16,12,20,27.50
2012,08,16,12,21,27.50
2012,08,16,12,22,27.60
2012,08,16,12,23,27.60
2012,08,16,12,24,27.50
2012,08,16,12,25,27.40
2012,08,16,12,26,27.40
2012,08,16,12,27,27.40
2012,08,16,12,28,27.50
2012,08,16,12,29,27.40
2012,08,16,12,30,27.30
2012,08,16,12,31,27.20
2012,08,16,12,32,27.10
2012,08,16,12,33,27.10
2012,08,16,12,34,27.00
2012,08,16,12,35,27.00
2012,08,16,12,36,26.90
2012,08,16,12,37,26.90
2012,08,16,12,38,26.90
2012,08,16,12,39,26.90
2012,08,16,12,40,26.80
2012,08,16,12,41,26.80
2012,08,16,12,42,26.80
2012,08,16,12,43,26.70
2012,08,16,12,44,26.70
2012,08,16,12,45,26.70
2012,08,16,12,46,26.70
2012,08,16,12,47,26.70
2012,08,16,12,48,26.60
2012,08,16,12,49,26.60
2012,08,16,12,50,26.60
2012,08,16,12,51,26.60
2012,08,16,12,52,26.70
2012,08,16,12,53,26.80
2012,08,16,12,54,26.80
2012,08,16,12,55,26.90
2012,08,16,12,56,26.90
2012,08,16,12,57,26.90
2012,08,16,12,58,26.90
2012,08,16,12,59,27.00
2012,08,16,13,00,27.10
2012,08,16,13,01,27.20
2012,08,16,13,02,27.20
2012,08,16,13,03,27.20
2012,08,16,13,04,27.10
2012,08,16,13,05,27.00
2012,08,16,13,06,26.90
2012,08,16,13,07,27.00
2012,08,16,13,08,27.00
2012,08,16,13,09,27.00
2012,08,16,13,10,27.00
2012,08,16,13,11,27.00
2012,08,16,13,12,27.10
2012,08,16,13,13,27.00
2012,08,16,13,14,26.90
2012,08,16,13,15,26.80
2012,08,16,13,16,26.80
2012,08,16,13,17,26.80
2012,08,16,13,18,26.70
2012,08,16,13,19,26.60
2012,08,16,13,20,26.40
2012,08,16,13,21,26.40
2012,08,16,13,22,26.40
2012,08,16,13,23,26.30
2012,08,16,13,24,26.30
2012,08,16,13,25,26.30
2012,08,16,13,26,26.40
2012,08,16,13,27,26.40
2012,08,16,13,28,26.40
2012,08,16,13,29,26.40
2012,08,16,13,30,26.50
2012,08,16,13,31,26.50
2012,08,16,13,32,26.50
2012,08,16,13,33,26.60
2012,08,16,13,34,26.70
2012,08,16,13,35,26.70
2012,08,16,13,36,26.70
2012,08,16,13,37,26.80
2012,08,16,13,38,26.80
2012,08,16,13,39,26.90
2012,08,16,13,40,26.90
2012,08,16,13,41,26.90
2012,08,16,13,42,26.90
2012,08,16,13,43,26.90
2012,08,16,13,44,26.80
2012,08,16,13,45,26.90
2012,08,16,13,46,26.90
2012,08,16,13,47,26.90
2012,08,16,13,48,26.80
2012,08,16,13,49,26.80
2012,08,16,13,50,26.80
2012,08,16,13,51,26.80
2012,08,16,13,52,26.80
2012,08,16,13,53,26.80
2012,08,16,13,54,26.80
2012,08,16,13,55,26.90
2012,08,16,13,56,27.00
2012,08,16,13,57,27.00
2012,08,16,13,58,27.00
2012,08,16,13,59,27.00
2012,08,16,14,00,26.90
2012,08,16,14,01,26.90
2012,08,16,14,02,27.00
2012,08,16,14,03,27.00
2012,08,16,14,04,27.00
2012,08,16,14,05,27.10
2012,08,16,14,06,27.00
2012,08,16,14,07,27.00
2012,08,16,14,08,27.00
2012,08,16,14,09,27.00
2012,08,16,14,10,27.10
2012,08,16,14,11,27.00
2012,08,16,14,12,26.90
2012,08,16,14,13,26.90
2012,08,16,14,14,26.90
2012,08,16,14,15,26.80
2012,08,16,14,16,26.80
2012,08,16,14,17,26.80
2012,08,16,14,18,26.70
2012,08,16,14,19,26.60
2012,08,16,14,20,26.60
2012,08,16,14,21,26.60
2012,08,16,14,22,26.70
2012,08,16,14,23,26.80
2012,08,16,14,24,26.90
2012,08,16,14,25,26.90
2012,08,16,14,26,26.90
2012,08,16,14,27,26.90
2012,08,16,14,28,27.00
2012,08,16,14,29,27.00
2012,08,16,14,30,27.00
2012,08,16,14,31,26.90
2012,08,16,14,32,26.90
2012,08,16,14,33,26.90
2012,08,16,14,34,27.00
2012,08,16,14,35,27.00
2012,08,16,14,36,26.90
2012,08,16,14,37,26.90
2012,08,16,14,38,26.90
2012,08,16,14,39,26.90
2012,08,16,14,40,26.90
2012,08,16,14,41,26.80
2012,08,16,14,42,26.70
2012,08,16,14,43,26.60
2012,08,16,14,44,26.60
2012,08,16,14,45,26.60
2012,08,16,14,46,26.60
2012,08,16,14,47,26.70
2012,08,16,14,48,26.70
2012,08,16,14,49,26.80
2012,08,16,14,50,26.90
2012,08,16,14,51,26.90
2012,08,16,14,52,26.90
2012,08,16,14,53,26.80
2012,08,16,14,54,26.80
2012,08,16,14,55,26.70
2012,08,16,14,56,26.70
2012,08,16,14,57,26.60
2012,08,16,14,58,26.60
2012,08,16,14,59,26.60
2012,08,16,15,00,26.70
2012,08,16,15,01,26.70
2012,08,16,15,02,26.80
2012,08,16,15,03,26.80
2012,08,16,15,04,26.80
2012,08,16,15,05,26.90
2012,08,16,15,06,27.00
2012,08,16,15,07,27.10
2012,08,16,15,08,27.20
2012,08,16,15,09,27.30
2012,08,16,15,10,27.30
2012,08,16,15,11,27.30
2012,08,16,15,12,27.30
2012,08,16,15,13,27.30
2012,08,16,15,14,27.30
2012,08,16,15,15,27.20
2012,08,16,15,16,27.10
2012,08,16,15,17,27.00
2012,08,16,15,18,26.90
2012,08,16,15,19,26.90
2012,08,16,15,20,26.90
2012,08,16,15,21,27.00
2012,08,16,15,22,27.10
2012,08,16,15,23,27.10
2012,08,16,15,24,27.10
2012,08,16,15,25,27.20
2012,08,16,15,26,27.20
2012,08,16,15,27,27.10
2012,08,16,15,28,27.00
2012,08,16,15,29,26.90
2012,08,16,15,30,26.80
2012,08,16,15,31,26.70
2012,08,16,15,32,26.70
2012,08,16,15,33,26.70
2012,08,16,15,34,26.70
2012,08,16,15,35,26.60
2012,08,16,15,36,26.50
2012,08,16,15,37,26.50
2012,08,16,15,38,26.40
2012,08,16,15,39,26.40
2012,08,16,15,40,26.40
2012,08,16,15,41,26.40
2012,08,16,15,42,26.40
2012,08,16,15,43,26.50
2012,08,16,15,44,26.60
2012,08,16,15,45,26.60
2012,08,16,15,46,26.50
2012,08,16,15,47,26.50
2012,08,16,15,48,26.60
2012,08,16,15,49,26.60
2012,08,16,15,50,26.70
2012,08,16,15,51,26.70
2012,08,16,15,52,26.60
2012,08,16,15,53,26.60
2012,08,16,15,54,26.60
2012,08,16,15,55,26.60
2012,08,16,15,56,26.70
2012,08,16,15,57,26.70
2012,08,16,15,58,26.70
2012,08,16,15,59,26.80
2012,08,16,16,00,26.80
2012,08,16,16,01,26.80
2012,08,16,16,02,26.70
2012,08,16,16,03,26.60
2012,08,16,16,04,26.50
2012,08,16,16,05,26.40
2012,08,16,16,06,26.40
2012,08,16,16,07,26.30
2012,08,16,16,08,26.30
2012,08,16,16,09,26.20
2012,08,16,16,10,26.20
2012,08,16,16,11,26.20
2012,08,16,16,12,26.10
2012,08,16,16,13,26.10
2012,08,16,16,14,26.20
2012,08,16,16,15,26.20
2012,08,16,16,16,26.30
2012,08,16,16,17,26.40
2012,08,16,16,18,26.40
2012,08,16,16,19,26.50
2012,08,16,16,20,26.50
2012,08,16,16,21,26.60
2012,08,16,16,22,26.70
2012,08,16,16,23,26.70
2012,08,16,16,24,26.70
2012,08,16,16,25,26.70
2012,08,16,16,26,26.80
2012,08,16,16,27,26.80
2012,08,16,16,28,26.90
2012,08,16,16,29,26.90
2012,08,16,16,30,26.90
2012,08,16,16,31,26.90
2012,08,16,16,32,26.80
2012,08,16,16,33,26.80
2012,08,16,16,34,26.80
2012,08,16,16,35,26.90
2012,08,16,16,36,26.90
2012,08,16,16,37,27.00
2012,08,16,16,38,27.00
2012,08,16,16,39,27.10
2012,08,16,16,40,27.10
2012,08,16,16,41,26.90
2012,08,16,16,42,26.80
2012,08,16,16,43,26.70
2012,08,16,16,44,26.50
2012,08,16,16,45,26.30
2012,08,16,16,46,26.30
2012,08,16,16,47,26.20
2012,08,16,16,48,26.10
2012,08,16,16,49,26.00
2012,08,16,16,50,25.90
2012,08,16,16,51,25.90
2012,08,16,16,52,25.80
2012,08,16,16,53,25.80
2012,08,16,16,54,25.70
2012,08,16,16,55,25.70
2012,08,16,16,56,25.70
2012,08,16,16,57,25.70
2012,08,16,16,58,25.80
2012,08,16,16,59,25.80
2012,08,16,17,00,25.90
2012,08,16,17,01,25.90
2012,08,16,17,02,26.00
2012,08,16,17,03,26.10
2012,08,16,17,04,26.10
2012,08,16,17,05,26.20
2012,08,16,17,06,26.30
2012,08,16,17,07,26.30
2012,08,16,17,08,26.20
2012,08,16,17,09,26.20
2012,08,16,17,10,26.20
2012,08,16,17,11,26.20
2012,08,16,17,12,26.10
2012,08,16,17,13,26.10
2012,08,16,17,14,26.10
2012,08,16,17,15,26.10
2012,08,16,17,16,26.00
2012,08,16,17,17,26.00
2012,08,16,17,18,25.90
2012,08,16,17,19,25.90